Location: Vancouver
(49.2500°N, 123.1330°W)
Time: 04:32:32
(UTC-08:00)

ISS - All Passes

Search period start: 05 December 2016 00:00
Search period end: 15 December 2016 00:00
Orbit: 401 x 410 km, 51.6° (Epoch: 05 December)

Date Brightness Start Highest point End Pass type
(mag) Time Alt. Az. Time Alt. Az. Time Alt. Az.
05 Dec - 16:08:34 10° SSE 16:10:10 13° SE 16:11:45 10° ESE daylight
05 Dec - 17:42:53 10° SW 17:46:08 60° SSE 17:49:24 10° ENE visible
05 Dec - 19:19:25 10° W 19:22:41 57° N 19:25:59 10° ENE visible
05 Dec - 20:56:06 10° WNW 20:59:26 70° NNE 21:02:44 10° E night (unlit)
05 Dec - 22:32:45 10° W 22:35:48 35° SSW 22:38:51 10° SE night (unlit)
06 Dec - 16:51:08 10° SW 16:54:14 39° SSE 16:57:21 10° ENE visible
06 Dec - 18:27:22 10° W 18:30:39 66° NNW 18:33:57 10° ENE visible
06 Dec - 20:04:07 10° WNW 20:07:24 58° N 20:10:41 10° E visible
06 Dec - 21:40:40 10° WNW 21:43:56 54° SSW 21:47:10 10° SE night (unlit)
06 Dec - 23:18:41 10° WSW 23:19:50 11° SW 23:21:00 10° SSW night (unlit)
07 Dec - 15:59:38 10° SSW 16:02:23 25° SE 16:05:10 10° E daylight
07 Dec - 17:35:20 10° WSW 17:38:38 84° NNW 17:41:58 10° ENE visible
07 Dec - 19:12:04 10° WNW 19:15:20 54° N 19:18:36 10° E visible
07 Dec - 20:48:39 10° WNW 20:51:59 80° SSW 20:55:17 10° ESE night (unlit)
07 Dec - 22:25:42 10° W 22:28:06 19° SW 22:30:30 10° S night (unlit)
08 Dec - 15:08:33 10° S 15:10:36 16° SE 15:12:41 10° E daylight
08 Dec - 16:43:22 10° WSW 16:46:39 70° SSE 16:49:57 10° ENE visible
08 Dec - 18:20:00 10° W 18:23:15 55° N 18:26:32 10° ENE visible
08 Dec - 19:56:39 10° WNW 19:59:57 77° NNE 20:03:17 10° ESE visible
08 Dec - 21:33:21 10° W 21:36:17 29° SW 21:39:12 10° SSE night (unlit)
09 Dec - 15:51:32 10° SW 15:54:41 46° SSE 15:57:53 10° ENE daylight
09 Dec - 17:27:54 10° W 17:31:10 61° N 17:34:28 10° ENE visible
09 Dec - 19:04:38 10° WNW 19:07:55 62° N 19:11:12 10° E visible
09 Dec - 20:41:11 10° WNW 20:44:23 45° SSW 20:47:34 10° SE night (unlit)
10 Dec - 14:59:53 10° SSW 15:02:48 29° SE 15:05:43 10° E daylight
10 Dec - 16:35:48 10° WSW 16:39:07 76° NNW 16:42:25 10° ENE daylight
10 Dec - 18:12:34 10° WNW 18:15:49 55° N 18:19:05 10° E visible
10 Dec - 19:49:07 10° WNW 19:52:25 69° SSW 19:55:43 10° ESE visible
10 Dec - 21:26:24 10° W 21:28:28 16° SW 21:30:31 10° S night (unlit)
11 Dec - 14:08:34 10° S 14:10:57 19° SE 14:13:20 10° E daylight
11 Dec - 15:43:46 10° WSW 15:47:03 80° SSE 15:50:22 10° ENE daylight
11 Dec - 17:20:27 10° W 17:23:42 54° N 17:26:58 10° ENE visible
11 Dec - 18:57:04 10° WNW 19:00:24 85° NNE 19:03:42 10° ESE visible
11 Dec - 20:33:52 10° W 20:36:38 25° SW 20:39:24 10° SSE night (unlit)
12 Dec - 13:18:00 10° SSE 13:19:09 11° SE 13:20:17 10° ESE daylight
12 Dec - 14:51:50 10° SW 14:55:03 54° SSE 14:58:18 10° ENE daylight
12 Dec - 16:28:19 10° W 16:31:34 58° N 16:34:51 10° ENE daylight
12 Dec - 18:05:01 10° WNW 18:08:19 66° NNE 18:11:37 10° E visible
12 Dec - 19:41:37 10° W 19:44:43 38° SSW 19:47:50 10° SE visible
13 Dec - 14:00:04 10° SW 14:03:05 35° SSE 14:06:08 10° E daylight
13 Dec - 15:36:10 10° W 15:39:28 69° NNW 15:42:46 10° ENE daylight
13 Dec - 17:12:56 10° WNW 17:16:11 57° N 17:19:27 10° E visible
13 Dec - 18:49:29 10° WNW 18:52:45 59° SSW 18:56:00 10° SE visible
13 Dec - 20:27:07 10° WSW 20:28:42 13° SW 20:30:17 10° SSW visible
14 Dec - 13:08:34 10° SSW 13:11:11 22° SE 13:13:49 10° E daylight
14 Dec - 14:44:05 10° WSW 14:47:22 90° N 14:50:41 10° ENE daylight
14 Dec - 16:20:48 10° WNW 16:24:02 53° N 16:27:18 10° E daylight
14 Dec - 17:57:23 10° WNW 18:00:42 86° SSW 18:04:00 10° ESE visible
14 Dec - 19:34:18 10° W 19:36:52 21° SW 19:39:25 10° SSE visible
